Humberborg — PHFC — position and weather

sailwx.info

Track history (hours):
 
Tides and Currents Weather Stations Pressure Air Temp Water Temp Dewpoint Dewpoint Depression Visibility Wind Speed Wind Dir Waves Ship Positions

Humberborg

Last reported at 2014-Jul-30 05:33 UTC. Time now 2014-Jul-30 07:11 UTC.
Position N 58°13' E 018°29'.

Length 114 m; draft 6.3 m.

Type: Cargo ship. MMSI: 246012000.

Date/timePositionNaut miles runAvg speedWind from/ knotsBaromVisibWave heightAir tempDewpointWater temp
2014-Jul-30 05:33N 58°13' E 018°29'1211.5
2014-Jul-30 04:33N 58°23' E 018°40'8411.3
2014-Jul-29 21:09N 59°37' E 019°56'1011.3
2014-Jul-29 20:17N 59°44' E 019°44'1111.4
2014-Jul-29 19:21N 59°52' E 019°30'  
2014-Jul-22 01:24N 59°02' E 020°30'1411.2
2014-Jul-22 00:09N 58°48' E 020°37'1810.7
2014-Jul-21 22:27N 58°31' E 020°47'1010.9
2014-Jul-21 21:33N 58°21' E 020°52'1110.8
2014-Jul-21 20:33N 58°11' E 020°58'510.9
2014-Jul-21 20:06N 58°06' E 021°00'610.6
2014-Jul-21 19:33N 58°01' E 021°03'2210.8
2014-Jul-21 17:33N 57°40' E 021°15'16 0.6
2014-Jul-20 13:26N 57°24' E 021°15'1211.7
2014-Jul-20 12:25N 57°20' E 020°55'1211.8
2014-Jul-20 11:26N 57°15' E 020°35'3711.9
2014-Jul-20 08:20N 57°01' E 019°32'1011.9
2014-Jul-20 07:31N 56°58' E 019°15'1112.0
2014-Jul-20 06:33N 56°53' E 018°56'  
Track history (hours):
 
Tides and Currents Weather Stations Pressure Air Temp Water Temp Dewpoint Dewpoint Depression Visibility Wind Speed Wind Dir Waves Ship Positions

Humberborg

Last reported at 2014-Jul-30 05:33 UTC. Time now 2014-Jul-30 07:11 UTC.
Position N 58°13' E 018°29'.

Length 114 m; draft 6.3 m.

Type: Cargo ship. MMSI: 246012000.

Date/timePositionNaut miles runAvg speedWind from/ knotsBaromVisibWave heightAir tempDewpointWater temp
2014-Jul-30 05:33N 58°13' E 018°29'1211.5
2014-Jul-30 04:33N 58°23' E 018°40'8411.3
2014-Jul-29 21:09N 59°37' E 019°56'1011.3
2014-Jul-29 20:17N 59°44' E 019°44'1111.4
2014-Jul-29 19:21N 59°52' E 019°30'  
2014-Jul-22 01:24N 59°02' E 020°30'1411.2
2014-Jul-22 00:09N 58°48' E 020°37'1810.7
2014-Jul-21 22:27N 58°31' E 020°47'1010.9
2014-Jul-21 21:33N 58°21' E 020°52'1110.8
2014-Jul-21 20:33N 58°11' E 020°58'510.9
2014-Jul-21 20:06N 58°06' E 021°00'610.6
2014-Jul-21 19:33N 58°01' E 021°03'2210.8
2014-Jul-21 17:33N 57°40' E 021°15'16 0.6
2014-Jul-20 13:26N 57°24' E 021°15'1211.7
2014-Jul-20 12:25N 57°20' E 020°55'1211.8
2014-Jul-20 11:26N 57°15' E 020°35'3711.9
2014-Jul-20 08:20N 57°01' E 019°32'1011.9
2014-Jul-20 07:31N 56°58' E 019°15'1112.0
2014-Jul-20 06:33N 56°53' E 018°56'  

Dump ship's entire track history